Weather History for KHIB - September, 2013

Change the Weather History Date:

Thursday, September 5, 2013

  Actual Average Record
Temperature  
Mean Temperature 56 °F -  
Max Temperature 75 °F 70 °F 87 °F (1998)
Min Temperature 37 °F 46 °F 29 °F (1972)
Degree Days  
Heating Degree Days 9    
Growing Degree Days 6 (Base 50)    
Moisture  
Dew Point 46 °F    
Average Humidity 72    
Maximum Humidity 93    
Minimum Humidity 43    
Precipitation  
Precipitation 0.00 in - - ()
Sea Level Pressure  
Sea Level Pressure 30.23 in    
Wind  
Wind Speed 2 mph (SSE)    
Max Wind Speed 8 mph    
Max Gust Speed -    
Visibility 10 miles    
Events      
Averages and records for this station are not official NWS values.
T = Trace of Precipitation, MM = Missing Value Source: NWS Daily Summary

Daily Weather History Graph

Daily Weather History Graph

Search for Another Location

Airport or City:

Trip Planner

Search our weather history database for the weather conditions in past years. The results will help you decide how hot, cold, wet, or windy it might be!

Date:

Astronomy

Sep. 05, 2013 Rise Set
Actual Time 6:35 AM CDT 7:43 PM CDT
Civil Twilight 6:04 AM CDT 8:14 PM CDT
Nautical Twilight 5:26 AM CDT 8:52 PM CDT
Astronomical Twilight 4:46 AM CDT 9:32 PM CDT
Moon 6:52 AM CDT (9/5) 7:28 PM CDT (9/5)
Length of Visible Light 14h 09m
Length of Day
13h 07m
New Moon, 0% of the Moon is Illuminated
Sep 5
New Moon
Sep 12
First Quarter
Sep 19
Full
Sep 26
Last Quarter
Oct 4
New

Hourly Weather History & Observations

Time (CDT) Temp. Dew Point Humidity Pressure Visibility Wind Dir Wind Speed Gust Speed Precip Events Conditions
12:53 AM 42.1 °F 39.9 °F 92% 30.23 in 10.0 mi Calm Calm - N/A   Clear
1:53 AM 41.0 °F 39.0 °F 93% 30.24 in 10.0 mi Calm Calm - N/A   Clear
2:53 AM 41.0 °F 39.0 °F 93% 30.26 in 10.0 mi Calm Calm - N/A   Clear
3:53 AM 39.0 °F 37.0 °F 93% 30.27 in 10.0 mi Calm Calm - N/A   Clear
4:30 AM 39.2 °F 35.6 °F 87% 30.25 in 2.5 mi Calm Calm - N/A   Clear
4:37 AM 39.2 °F 37.4 °F 93% 30.25 in 9.0 mi Calm Calm - N/A   Clear
4:53 AM 39.0 °F 37.0 °F 93% 30.27 in 10.0 mi Calm Calm - N/A   Clear
5:53 AM 37.0 °F 35.1 °F 93% 30.28 in 10.0 mi Calm Calm - N/A   Clear
6:53 AM 37.9 °F 35.1 °F 89% 30.30 in 10.0 mi Calm Calm - N/A   Clear
7:53 AM 46.0 °F 42.1 °F 86% 30.30 in 10.0 mi Calm Calm - N/A   Clear
8:53 AM 55.0 °F 46.0 °F 72% 30.30 in 10.0 mi ESE 4.6 mph - N/A   Clear
9:53 AM 61.0 °F 48.0 °F 62% 30.30 in 10.0 mi SSE 4.6 mph - N/A   Clear
10:53 AM 66.0 °F 48.0 °F 52% 30.29 in 10.0 mi South 6.9 mph - N/A   Clear
11:53 AM 69.1 °F 48.9 °F 49% 30.28 in 10.0 mi Variable 5.8 mph - N/A   Clear
12:53 PM 71.1 °F 48.0 °F 44% 30.27 in 10.0 mi South 6.9 mph - N/A   Clear
1:53 PM 73.9 °F 51.1 °F 45% 30.24 in 10.0 mi South 6.9 mph - N/A   Clear
2:53 PM 75.0 °F 53.1 °F 46% 30.21 in 10.0 mi SE 8.1 mph - N/A   Clear
3:53 PM 75.9 °F 52.0 °F 43% 30.20 in 10.0 mi SSW 6.9 mph - N/A   Clear
4:53 PM 75.9 °F 55.0 °F 48% 30.19 in 10.0 mi South 6.9 mph - N/A   Clear
5:53 PM 73.9 °F 53.1 °F 48% 30.17 in 10.0 mi SSE 5.8 mph - N/A   Clear
6:53 PM 70.0 °F 55.0 °F 59% 30.16 in 10.0 mi SSE 4.6 mph - N/A   Clear
7:53 PM 64.9 °F 53.1 °F 65% 30.15 in 10.0 mi SSE 4.6 mph - N/A   Clear
8:53 PM 61.0 °F 52.0 °F 72% 30.14 in 10.0 mi SSE 5.8 mph - N/A   Clear
9:53 PM 60.1 °F 53.1 °F 78% 30.14 in 10.0 mi SSE 4.6 mph - N/A   Clear
10:53 PM 55.0 °F 51.1 °F 86% 30.14 in 10.0 mi Calm Calm - N/A   Clear
11:53 PM 53.1 °F 51.1 °F 93% 30.13 in 10.0 mi Calm Calm - N/A   Clear